Location: Besigheim
(48.9980°N, 9.1427°E)
Time: 17:03:58
(UTC+00:00)

SL-24 R/B - RUBIN 2 - Pass Details

Date: 18 February 2026
Orbit: 603 x 984 km, 64.6° (Epoch: 8 March)

Event Time Altitude Azimuth Distance (km) Brightness Sun altitude
Exits shadow 04:45:16 10° 330° (NNW) 1,992 5.9 -17.3°
Maximum altitude 04:46:46 12° 350° (N) 1,880 5.9 -17.0°
Drops below altitude 10° 04:48:23 10° 11° (NNE) 1,979 6.3 -16.8°
Sets 04:52:09 0° 45° (NE) 2,864 7.7 -16.1°
